User: anonymous
Location: Unspecified
(0.0000°N, 0.0000°E)
Time: 05:53:38
(UTC+02:00)
Language:

Cosmos 1538 Rocket - Orbit

View from above orbital plane
View from above orbital plane
View from above satellite
View from above satellite

Ground track
Ground track

The orbit data is extracted from the following two-line orbital elements,

1 14760U 84019B   14261.15671176  .00000175  00000-0  69713-4 0  4097
2 14760 074.0451 161.5500 0029116 268.0519 255.1513 14.35534103599632
Epoch (UTC): 18 September 2014 03:45:39
Eccentricity: 0.0029116
inclination: 74.0451°
perigee height: 752 km
apogee height: 794 km
right ascension of ascending node: 161.5500°
argument of perigee: 268.0519°
revolutions per day: 14.35534103
mean anomaly at epoch: 255.1513°
orbit number at epoch: 59963

The dashed part of the orbit path shows where the satellite is in the earth's shadow,  

DLR